Home > Weather > Virginia Beach > Past weeks

Flag for U.S.A. Weather for the Past 2 Weeks in Virginia Beach, Virginia, U.S.A.

Now
20 °F

Scattered clouds.


Feels Like: 6 °F
Forecast: 18 / 27 °F
Wind: 16 mph from North

Location: Virginia Beach - Oceana

Current Time: Feb 14, 2016 at 7:38:13 AM

Latest Report: Feb 14, 2016 at 6:56 AM


Visibility: 10 mi

Pressure: 30.54 "Hg

Humidity: 41%

Dew point: 0 °F

Location of Virginia BeachLocation

Historic Weather in Virginia Beach — Graph

°F

Virginia Beach Temperature Yesterday

Maximum temperature yesterday: 34 °F (at 1:56 PM)
Minimum temperature yesterday: 24 °F (at 3:56 AM)
Average temperature yesterday: 29 °F

High & Low Weather Summary for the Past Weeks

 TemperatureHumidityPressure
High77 °F (Feb 3, 11:56 AM)87% (Feb 3, 8:56 PM)30.52 "Hg (Feb 3, 8:56 PM)
Low20 °F (Feb 14, 4:56 AM)22% (Feb 11, 11:56 AM)29.54 "Hg (Feb 9, 5:56 AM)
Average45 °F58%30.05 "Hg
* Reported Jan 30 5:56 AM — Feb 14 5:56 AM, Virginia Beach, Weather by CustomWeather, © 2016

Note: Actual official high and low records may vary slightly from our data, if they occured in-between our weather recording intervals... More about our weather records

Advertising

Virginia Beach Weather History for the Previous 24 Hours

 ConditionsComfort  
Time TempWeatherWind HumidityBarometerVisibility
5:56 AM
Sun, Feb 14
20 °FPassing clouds.20 mph38%30.52 "Hg10 mi
4:56 AM20 °FPassing clouds.20 mph38%30.49 "Hg10 mi
3:56 AM21 °FPassing clouds.15 mph38%30.47 "Hg10 mi
2:56 AM21 °FPassing clouds.20 mph38%30.45 "Hg10 mi
1:56 AM22 °FPassing clouds.24 mph31%30.45 "Hg10 mi
12:56 AM23 °FPassing clouds.22 mph36%30.45 "Hg10 mi
11:56 PM
Sat, Feb 13
24 °FPassing clouds.17 mph36%30.44 "Hg10 mi
10:56 PM25 °FClear.18 mph35%30.43 "Hg10 mi
9:56 PM26 °FClear.18 mph33%30.41 "Hg10 mi
8:56 PM27 °FClear.18 mph34%30.39 "Hg10 mi
7:56 PM29 °FPassing clouds.18 mph34%30.36 "Hg10 mi
6:56 PM30 °FPassing clouds.18 mph27%30.33 "Hg10 mi
5:56 PM31 °FPassing clouds.13 mph25%30.31 "Hg10 mi
4:56 PM32 °FPassing clouds.15 mph24%30.26 "Hg10 mi
3:56 PM34 °FPassing clouds.18 mph25%30.24 "Hg10 mi
2:56 PM34 °FPassing clouds.17 mph28%30.23 "Hg10 mi
1:56 PM34 °FPassing clouds.20 mph31%30.21 "Hg10 mi
12:56 PM33 °FPassing clouds.16 mph35%30.22 "Hg10 mi
11:56 AM32 °FPassing clouds.22 mph35%30.24 "Hg10 mi
10:56 AM31 °FPassing clouds.22 mph36%30.24 "Hg10 mi
9:56 AM31 °FPassing clouds.23 mph40%30.22 "Hg10 mi
8:56 AM30 °FPassing clouds.26 mph45%30.20 "Hg10 mi
7:56 AM30 °FScattered clouds.24 mph56%30.17 "Hg10 mi
Weather by CustomWeather, © 2016

See weather overviewHow to use our weather pages